Terug naar catalogus

CZ-3B R/B

ActiefHEO
NORAD 45864·ROCKET BODY·🇨🇳 China

Gelanceerd Jul 9, 2020 vanaf Xichang Satellite Launch Center

Loading…

Volgende Passages (komende 24 uur)

TLE

VersSource: Space-Track

Epoch: Sep 14, 2026, 11:40 UTC

1 45864U 20045B   26257.48622663  .00166134  45534-6  12079-2 0  9996
2 45864  28.3926 354.6354 5019925 188.1871 158.8780  5.75627064 82160

Volg CZ-3B R/B in realtime met AllMySat

Download on the App Store